Hourly Data Report for May 13, 2020

TORONTO CITY
ONTARIO
Current Station Operator: ECCC - MSC

43°40'00.000" N
79°24'00.000" W
112.50 m
6158355
71508
XTO

Download Data

Hourly Data (May 2020)
Hourly Data Report for May 13, 2020
TIME
LST
Temp Definition
°C
Dew Point Definition
°C
Rel Hum Definition
%
Precip. Amount Definition
mm

Wind Dir Definition
10's deg

Wind Spd Definition
km/h
Visibility Definition
km
Stn Press Definition
kPa
Hmdx Definition


Wind Chill Definition


Weather Definition


00:00 2.6 -6.6 51 0.0       101.01     LegendNANA
01:00 2.2 -5.7 56 0.0       101.03     LegendNANA
02:00 1.3 -5.4 61 0.0       101.08     LegendNANA
03:00 0.4 -5.3 65 0.0       101.12     LegendNANA
04:00 0.2 -4.8 69 0.0       101.15     LegendNANA
05:00 0.4 -4.8 68 0.0       101.19     LegendNANA
06:00 1.4 -4.3 66 0.0       101.26     LegendNANA
07:00 4.0 -4.7 53 0.0       101.33     LegendNANA
08:00 6.6 -5.2 42 0.0       101.40     LegendNANA
09:00 8.1 -4.3 41 0.0       101.42     LegendNANA
10:00 8.8 -3.3 42 0.0       101.46     LegendNANA
11:00 9.7 -4.2 37 0.0       101.47     LegendNANA
12:00 9.5 -8.3 27 0.2       101.45     LegendNANA
13:00 9.4 -9.6 25 0.3       101.39     LegendNANA
14:00 10.7 -9.2 24 0.2       101.36     LegendNANA
15:00 11.5 -8.8 23 0.2       101.29     LegendNANA
16:00 11.5 -8.9 23 0.6       101.25     LegendNANA
17:00 10.8 -9.6 23 0.0       101.24     LegendNANA
18:00 10.9 -9.5 23 0.0       101.20     LegendNANA
19:00 10.3 -9.9 23 0.0       101.22     LegendNANA
20:00 9.5 -5.4 34 0.0       101.20     LegendNANA
21:00 9.1 -3.1 42 0.0       101.22     LegendNANA
22:00 8.7 -3.3 43 0.0       101.20     LegendNANA
23:00 8.3 -2.8 45 0.0       101.21     LegendNANA

Notes on Data Quality.

Legend

  • E = Estimated
  • M = Missing
  • NA = Not Available*
  • [empty] = Indicates an unobserved value
Date modified: